• In Hungary
  • List of Countries
  • For 7 days
  • Water Temperature
  • Satellite Maps
  • Weather Map
  • News
  • Weather Widgets
  • user-avatar
    Login

    Hourly Weather Irkilik

    Today, 19 February, Monday

    Time Temperature Precipitation Wind Pressure Humidity
    00:00 -26°C° 0 mm 2 mps 668 mmHg 96%
    01:00 -26°C° 0 mm 2 mps 667 mmHg 96%
    02:00 -24°C° 0 mm 1 mps 667 mmHg 96%
    03:00 -24°C° 0 mm 1 mps 667 mmHg 96%
    04:00 -24°C° 0 mm 1 mps 667 mmHg 96%
    05:00 -24°C° 0 mm 1 mps 667 mmHg 96%
    06:00 -24°C° 0 mm 1 mps 667 mmHg 96%
    07:00 -23°C° 0 mm 1 mps 667 mmHg 96%
    08:00 -24°C° 0 mm 2 mps 668 mmHg 93%
    09:00 -23°C° 0 mm 2 mps 668 mmHg 89%
    10:00 -20°C° 0 mm 2 mps 669 mmHg 86%
    11:00 -21°C° 0 mm 3 mps 669 mmHg 84%
    12:00 -19°C° 0 mm 3 mps 669 mmHg 82%
    13:00 -19°C° 0 mm 4 mps 669 mmHg 80%
    14:00 -19°C° 0.1 mm 4 mps 668 mmHg 81%
    15:00 -19°C° 0.1 mm 4 mps 668 mmHg 82%
    16:00 -19°C° 0.1 mm 4 mps 668 mmHg 83%
    17:00 -21°C° 0 mm 3 mps 668 mmHg 87%
    18:00 -20°C° 0 mm 2 mps 668 mmHg 90%
    19:00 -21°C° 0 mm 2 mps 667 mmHg 93%
    20:00 -23°C° 0 mm 2 mps 667 mmHg 94%
    21:00 -23°C° 0 mm 2 mps 667 mmHg 94%
    22:00 -23°C° 0 mm 2 mps 667 mmHg 95%
    23:00 -23°C° 0.1 mm 2 mps 667 mmHg 95%

    Tomorrow, 20 February, Tuesday

    Time Temperature Precipitation Wind Pressure Humidity
    00:00 -23°C° 0.1 mm 2 mps 667 mmHg 95%
    01:00 -23°C° 0.1 mm 2 mps 667 mmHg 96%
    02:00 -23°C° 0.1 mm 2 mps 667 mmHg 96%
    03:00 -23°C° 0.1 mm 2 mps 667 mmHg 96%
    04:00 -24°C° 0.1 mm 2 mps 667 mmHg 96%
    05:00 -24°C° 0.1 mm 2 mps 667 mmHg 96%
    06:00 -24°C° 0.1 mm 2 mps 667 mmHg 96%
    07:00 -24°C° 0.1 mm 2 mps 667 mmHg 96%
    08:00 -21°C° 0.1 mm 2 mps 667 mmHg 93%
    09:00 -19°C° 0.1 mm 2 mps 668 mmHg 91%
    10:00 -18°C° 0.1 mm 3 mps 668 mmHg 88%
    11:00 -18°C° 0.1 mm 4 mps 668 mmHg 86%
    12:00 -17°C° 0.1 mm 4 mps 667 mmHg 83%
    13:00 -17°C° 0.1 mm 5 mps 667 mmHg 81%
    14:00 -17°C° 0.1 mm 5 mps 667 mmHg 82%
    15:00 -17°C° 0.1 mm 5 mps 666 mmHg 83%
    16:00 -17°C° 0.1 mm 5 mps 666 mmHg 84%
    17:00 -18°C° 0.1 mm 5 mps 666 mmHg 86%
    18:00 -17°C° 0.1 mm 4 mps 666 mmHg 87%
    19:00 -18°C° 0.1 mm 4 mps 666 mmHg 89%
    20:00 -19°C° 0.1 mm 4 mps 665 mmHg 91%
    21:00 -18°C° 0.1 mm 3 mps 665 mmHg 92%
    22:00 -18°C° 0.1 mm 2 mps 664 mmHg 93%
    23:00 -18°C° 0.2 mm 2 mps 664 mmHg 93%

    Day after tomorrow, 21 February, Wednesday

    Time Temperature Precipitation Wind Pressure Humidity
    00:00 -18°C° 0.2 mm 2 mps 664 mmHg 94%
    01:00 -18°C° 0.2 mm 2 mps 664 mmHg 95%
    02:00 -18°C° 0.2 mm 2 mps 664 mmHg 95%
    03:00 -17°C° 0.2 mm 1 mps 664 mmHg 95%
    04:00 -17°C° 0.2 mm 1 mps 663 mmHg 95%
    05:00 -18°C° 0.1 mm 1 mps 663 mmHg 95%
    06:00 -18°C° 0.1 mm 1 mps 663 mmHg 95%
    07:00 -19°C° 0.1 mm 1 mps 663 mmHg 95%
    08:00 -19°C° 0.1 mm 2 mps 663 mmHg 92%
    09:00 -19°C° 0.1 mm 3 mps 663 mmHg 89%
    10:00 -17°C° 0.1 mm 3 mps 663 mmHg 86%
    11:00 -17°C° 0.1 mm 4 mps 663 mmHg 84%
    12:00 -17°C° 0.1 mm 4 mps 663 mmHg 82%
    13:00 -16°C° 0.1 mm 4 mps 663 mmHg 81%
    14:00 -16°C° 0.1 mm 4 mps 662 mmHg 81%
    15:00 -16°C° 0.1 mm 4 mps 662 mmHg 82%
    16:00 -17°C° 0.1 mm 4 mps 662 mmHg 83%
    17:00 -17°C° 0.1 mm 3 mps 662 mmHg 86%
    18:00 -17°C° 0.1 mm 2 mps 661 mmHg 89%
    19:00 -17°C° 0.1 mm 1 mps 661 mmHg 92%
    20:00 -17°C° 0.1 mm 1 mps 661 mmHg 93%
    21:00 -17°C° 0.1 mm 1 mps 660 mmHg 93%
    22:00 -18°C° 0.1 mm 1 mps 660 mmHg 94%
    23:00 -17°C° 0.1 mm 1 mps 660 mmHg 94%

    22 February, Thursday

    Time Temperature Precipitation Wind Pressure Humidity
    00:00 -17°C° 0.1 mm 1 mps 660 mmHg 95%
    01:00 -17°C° 0.1 mm 1 mps 659 mmHg 95%
    02:00 -17°C° 0.1 mm 1 mps 659 mmHg 95%
    03:00 -17°C° 0.1 mm 1 mps 659 mmHg 96%
    04:00 -17°C° 0.1 mm 1 mps 658 mmHg 96%
    05:00 -17°C° 0.1 mm 1 mps 659 mmHg 96%
    06:00 -19°C° 0.1 mm 2 mps 659 mmHg 95%
    07:00 -19°C° 0.1 mm 2 mps 659 mmHg 95%
    08:00 -18°C° 0 mm 2 mps 659 mmHg 90%
    09:00 -18°C° 0 mm 3 mps 660 mmHg 85%
    10:00 -17°C° 0 mm 3 mps 660 mmHg 80%
    11:00 -17°C° 0 mm 3 mps 660 mmHg 77%
    12:00 -16°C° 0 mm 3 mps 660 mmHg 75%
    13:00 -16°C° 0 mm 3 mps 660 mmHg 73%
    14:00 -17°C° 0 mm 3 mps 660 mmHg 75%
    15:00 -17°C° 0 mm 3 mps 660 mmHg 77%
    16:00 -16°C° 0 mm 2 mps 660 mmHg 78%
    17:00 -19°C° 0 mm 2 mps 660 mmHg 82%
    18:00 -19°C° 0 mm 1 mps 660 mmHg 86%
    19:00 -21°C° 0 mm 1 mps 660 mmHg 90%
    20:00 -22°C° 0 mm 1 mps 660 mmHg 90%
    21:00 -23°C° 0 mm 1 mps 660 mmHg 90%
    22:00 -23°C° 0 mm 1 mps 660 mmHg 90%
    23:00 -24°C° 0 mm 1 mps 660 mmHg 89%

    23 February, Friday

    Time Temperature Precipitation Wind Pressure Humidity
    00:00 -24°C° 0 mm 1 mps 660 mmHg 89%
    01:00 -25°C° 0 mm 1 mps 660 mmHg 88%
    02:00 -25°C° 0 mm 1 mps 660 mmHg 88%
    03:00 -25°C° 0 mm 1 mps 660 mmHg 88%
    04:00 -25°C° 0 mm 1 mps 660 mmHg 88%
    05:00 -25°C° 0 mm 1 mps 661 mmHg 88%
    06:00 -25°C° 0 mm 1 mps 661 mmHg 88%
    07:00 -25°C° 0 mm 1 mps 661 mmHg 89%
    08:00 -23°C° 0 mm 1 mps 662 mmHg 86%
    09:00 -20°C° 0 mm 1 mps 663 mmHg 84%
    10:00 -17°C° 0 mm 1 mps 663 mmHg 82%
    11:00 -16°C° 0 mm 1 mps 663 mmHg 81%
    12:00 -14°C° 0 mm 1 mps 663 mmHg 80%
    13:00 -13°C° 0 mm 1 mps 664 mmHg 79%
    14:00 -13°C° 0 mm 1 mps 664 mmHg 81%
    15:00 -12°C° 0 mm 1 mps 664 mmHg 83%
    16:00 -12°C° 0 mm 1 mps 664 mmHg 86%
    17:00 -14°C° 0 mm 1 mps 664 mmHg 88%
    18:00 -16°C° 0 mm 1 mps 663 mmHg 91%
    19:00 -18°C° 0 mm 1 mps 663 mmHg 93%
    20:00 -18°C° 0 mm 1 mps 663 mmHg 93%
    21:00 -18°C° 0 mm 1 mps 663 mmHg 93%
    22:00 -18°C° 0 mm 1 mps 663 mmHg 93%
    23:00 -18°C° 0 mm 1 mps 663 mmHg 93%

    24 February, Saturday

    Time Temperature Precipitation Wind Pressure Humidity
    00:00 -19°C° 0 mm 1 mps 663 mmHg 93%
    01:00 -19°C° 0 mm 1 mps 663 mmHg 94%
    02:00 -19°C° 0 mm 1 mps 663 mmHg 94%
    03:00 -19°C° 0 mm 1 mps 663 mmHg 94%
    04:00 -19°C° 0 mm 1 mps 663 mmHg 94%
    05:00 -19°C° 0 mm 1 mps 663 mmHg 93%
    06:00 -19°C° 0 mm 1 mps 663 mmHg 93%
    07:00 -19°C° 0 mm 1 mps 663 mmHg 93%
    08:00 -17°C° 0 mm 1 mps 663 mmHg 90%
    09:00 -15°C° 0 mm 1 mps 664 mmHg 87%
    10:00 -12°C° 0 mm 0 mps 664 mmHg 84%
    11:00 -11°C° 0 mm 1 mps 664 mmHg 83%
    12:00 -10°C° 0 mm 1 mps 664 mmHg 81%
    13:00 -9°C° 0 mm 1 mps 664 mmHg 80%
    14:00 -9°C° 0 mm 1 mps 663 mmHg 81%
    15:00 -9°C° 0 mm 1 mps 663 mmHg 83%
    16:00 -9°C° 0 mm 1 mps 663 mmHg 84%
    17:00 -11°C° 0 mm 1 mps 663 mmHg 87%
    18:00 -13°C° 0 mm 1 mps 663 mmHg 91%
    19:00 -15°C° 0 mm 1 mps 662 mmHg 94%
    20:00 -16°C° 0 mm 1 mps 662 mmHg 94%
    21:00 -16°C° 0 mm 1 mps 662 mmHg 94%
    22:00 -16°C° 0 mm 1 mps 662 mmHg 94%
    23:00 -17°C° 0 mm 1 mps 662 mmHg 94%
    Show more